STARLINK-5423 (55670 NORAD) Tracking and Keplerian Element Data

This shows tracking and keplerian element data for the satellite.

Feedback or suggestion? Click here.




ElementValue
Catalog55670
NameSTARLINK-5423
Epoch Orbit130
Epoch Day62.91667824
Epoch Year2023
RAAN110.1829
Inclination70
Eccentricity0.0003508
Argument of Perigee269.3288
Mean Anonmoly340.6275
Mean Motion15.75260272
Decay Rate-0.00973042
L11 55670U 23021AU 23062.91667824 -.00973042 00000+0 -72269-2 0 9991
L22 55670 70.0000 110.1829 0003508 269.3288 340.6275 15.75260272 1306



Live tracking and technical data element details for STARLINK-5423 (NORAD 55670). STARLINK-5423 can be tracked NOW for your location showing map with azimuth and elevation plus other details from your city location.







IsCatalogInMostPopularTable: catalog: 55670, numindb: 1
Update: records affected: 1



GetName: 55670 STARLINK-5423

Hit Count: updated at: Wed, 22 Mar 2023 16:58:00 GMT